FW4609 Weather Reports


Display with metric or nautical units.
time (UTC)temp
F
wind
direction
speed
MPH
gust
MPH
rain 1hr
in
rain 24hr
in
rain mn
in
humidity
%
barometer
mb
20260510044640 48 352 0.0 4.0 0.00 0.27 0.00 92 1008.5
20260510043042 48 12 0.0 2.0 0.00 0.27 0.00 92 1008.2
20260510041635 47 217 0.0 1.0 0.00 0.27 0.00 92 1007.1
20260510040053 47 217 0.0 1.0 0.00 0.27 0.27 92 1007.3
20260510034517 46 147 0.0 0.0 0.00 0.27 0.27 91 1007.0
20260510033116 47 147 0.0 0.0 0.00 0.27 0.27 91 1006.5
20260510031538 47 147 0.0 0.0 0.00 0.27 0.27 91 1006.3
20260510030134 47 147 0.0 0.0 0.00 0.27 0.27 91 1006.4
20260510024548 48 147 0.0 1.0 0.00 0.27 0.27 91 1006.4
20260510023014 48 160 0.0 1.0 0.00 0.27 0.27 91 1006.5
20260510021612 48 159 0.0 1.0 0.00 0.27 0.27 90 1006.6
20260510020032 49 193 0.0 1.0 0.00 0.27 0.27 89 1006.3
20260510014625 49 193 0.0 0.0 0.00 0.27 0.27 89 1006.1
20260510011506 51 194 0.0 1.0 0.00 0.27 0.27 88 1005.6
20260510010119 51 193 0.0 1.0 0.00 0.27 0.27 88 1005.2
20260510004509 51 181 0.0 2.0 0.00 0.27 0.27 88 1005.0
20260510003108 52 207 0.0 2.0 0.00 0.27 0.27 87 1004.9
20260510001524 53 197 1.0 2.0 0.00 0.27 0.27 86 1004.4
20260510000109 53 198 1.0 3.0 0.00 0.27 0.27 86 1004.3
20260509234529 53 206 1.0 3.0 0.00 0.27 0.27 86 1004.1
20260509233123 53 139 2.0 3.0 0.07 0.27 0.27 87 1004.1
20260509231554 53 199 1.0 3.0 0.16 0.27 0.27 88 1003.8
20260509230018 52 190 1.0 3.0 0.21 0.27 0.27 90 1004.2
20260509224613 51 155 0.0 2.0 0.26 0.27 0.27 89 1004.6
20260509223035 51 240 1.0 10.0 0.17 0.17 0.17 88 1005.8
20260509221635 51 273 6.0 14.0 0.11 0.11 0.11 86 1005.9
20260509220108 55 321 12.0 22.0 0.06 0.06 0.06 80 1005.7
20260509214530 58 266 1.0 4.0 0.00 0.00 0.00 81 1003.5
20260509213119 59 217 1.0 2.0 0.00 0.00 0.00 79 1003.3
20260509211543 60 207 2.0 4.0 0.00 0.00 0.00 78 1002.9
20260509210125 61 172 3.0 5.0 0.00 0.00 0.00 77 1002.8
20260509204535 61 176 2.0 4.0 0.00 0.00 0.00 77 1002.9
20260509203146 60 203 2.0 4.0 0.00 0.00 0.00 78 1003.3
20260509201528 60 206 2.0 5.0 0.00 0.00 0.00 78 1003.5
20260509200115 60 183 2.0 6.0 0.00 0.00 0.00 79 1003.8
20260509194533 60 184 2.0 5.0 0.00 0.00 0.00 77 1004.3
20260509193137 61 190 3.0 6.0 0.00 0.00 0.00 77 1004.2
20260509191557 60 209 3.0 6.0 0.00 0.00 0.00 78 1004.1
20260509190010 62 208 4.0 6.0 0.00 0.00 0.00 77 1004.3
20260509184600 62 200 4.0 7.0 0.00 0.00 0.00 77 1004.4
20260509183020 62 221 3.0 8.0 0.00 0.00 0.00 75 1004.7
20260509181511 64 173 4.0 7.0 0.00 0.00 0.00 75 1004.8
20260509180109 62 172 4.0 7.0 0.00 0.00 0.00 76 1004.8
20260509173115 63 192 4.0 7.0 0.00 0.00 0.00 75 1005.0
20260509171528 62 180 3.0 7.0 0.00 0.00 0.00 76 1005.2
20260509170126 61 198 3.0 6.0 0.00 0.00 0.00 79 1005.5
20260509164557 62 190 4.0 8.0 0.00 0.00 0.00 77 1005.5
20260509163130 61 233 3.0 8.0 0.00 0.00 0.00 76 1005.8
20260509161545 62 209 4.0 7.0 0.00 0.00 0.00 77 1005.6
20260509160131 61 218 4.0 7.0 0.00 0.00 0.00 77 1005.9
20260509154549 60 160 3.0 6.0 0.00 0.00 0.00 78 1006.2
20260509153012 60 212 3.0 6.0 0.00 0.00 0.00 78 1006.4
20260509151608 60 203 4.0 6.0 0.00 0.00 0.00 78 1006.3
20260509150015 59 238 3.0 6.0 0.00 0.00 0.00 79 1006.3
20260509144606 59 205 3.0 7.0 0.00 0.00 0.00 78 1006.4
20260509143023 58 204 2.0 5.0 0.00 0.00 0.00 81 1006.3
20260509141504 57 188 3.0 5.0 0.00 0.00 0.00 82 1006.4
20260509140048 56 219 2.0 5.0 0.00 0.00 0.00 83 1006.6
20260509134502 55 194 2.0 4.0 0.00 0.00 0.00 84 1006.7
20260509133037 54 192 2.0 5.0 0.00 0.00 0.00 85 1006.6
20260509131519 53 181 2.0 4.0 0.00 0.00 0.00 87 1007.0
20260509130113 53 208 1.0 4.0 0.00 0.00 0.00 88 1007.1
20260509124542 52 205 2.0 4.0 0.00 0.00 0.00 89 1007.0
20260509123006 52 197 2.0 3.0 0.00 0.00 0.00 91 1007.0
20260509121545 51 195 1.0 3.0 0.00 0.00 0.00 92 1007.1
20260509120009 50 190 1.0 2.0 0.00 0.00 0.00 93 1007.2
20260509114550 50 200 0.0 1.0 0.00 0.00 0.00 93 1007.1
20260509113008 48 162 0.0 1.0 0.00 0.00 0.00 93 1007.0
20260509111551 47 150 0.0 1.0 0.00 0.00 0.00 93 1007.0
20260509110133 46 150 0.0 1.0 0.00 0.00 0.00 93 1007.0
20260509104553 45 152 0.0 1.0 0.00 0.01 0.00 92 1007.1
20260509103015 45 152 0.0 0.0 0.00 0.01 0.00 92 1007.2
20260509101630 44 152 0.0 0.0 0.00 0.01 0.00 92 1007.4
20260509100049 44 152 0.0 0.0 0.00 0.01 0.00 91 1007.4
20260509094518 45 152 0.0 1.0 0.00 0.01 0.00 91 1007.2
20260509093112 45 152 0.0 0.0 0.00 0.01 0.00 91 1007.2
20260509091524 45 152 0.0 0.0 0.00 0.01 0.00 91 1007.3
20260509090116 45 152 0.0 0.0 0.00 0.01 0.00 91 1007.5
20260509084535 45 152 0.0 0.0 0.00 0.01 0.00 91 1007.6
20260509083125 44 152 0.0 0.0 0.00 0.01 0.00 91 1007.6
20260509081604 43 152 0.0 0.0 0.00 0.01 0.00 91 1007.7
20260509080033 41 152 0.0 0.0 0.00 0.01 0.00 90 1007.7
20260509074626 41 152 0.0 0.0 0.00 0.01 0.00 89 1007.9
20260509073030 40 152 0.0 0.0 0.00 0.01 0.00 88 1007.8
20260509071625 40 152 0.0 0.0 0.00 0.01 0.00 88 1008.0
20260509070045 39 152 0.0 0.0 0.00 0.01 0.00 87 1008.0
20260509064510 39 152 0.0 0.0 0.00 0.01 0.00 86 1008.2
20260509063104 40 152 0.0 0.0 0.00 0.01 0.00 86 1008.3
20260509061524 40 152 0.0 0.0 0.00 0.01 0.00 86 1008.5
20260509060145 41 152 0.0 0.0 0.00 0.01 0.00 85 1008.7
20260509054547 41 152 0.0 0.0 0.00 0.02 0.00 85 1009.0
20260509053131 41 152 0.0 0.0 0.00 0.02 0.00 84 1009.2
20260509051550 40 152 0.0 0.0 0.00 0.02 0.00 84 1009.3
20260509050139 41 152 0.0 0.0 0.00 0.02 0.00 84 1009.5